Weather History for Morristown, NJ

Change the Weather History Date:

Wednesday, September 18, 2013

  Actual Average Record
Temperature  
Mean Temperature 53 °F -  
Max Temperature 69 °F 75 °F 93 °F (1991)
Min Temperature 37 °F 52 °F 31 °F (1937)
Degree Days  
Heating Degree Days 12    
Growing Degree Days 3 (Base 50)    
Moisture  
Dew Point 41 °F    
Average Humidity 79    
Maximum Humidity 100    
Minimum Humidity 35    
Precipitation  
Precipitation 0.00 in - - ()
Sea Level Pressure  
Sea Level Pressure 30.31 in    
Wind  
Wind Speed 1 mph (SW)    
Max Wind Speed 9 mph    
Max Gust Speed -    
Visibility 8 miles    
Events Fog    
Averages and records for this station are not official NWS values.
T = Trace of Precipitation, MM = Missing Value Source: NWS Daily Summary

Daily Weather History Graph

Daily Weather History Graph

Search for Another Location

Airport:

Trip Planner

Search our weather history database for the weather conditions in past years. The results will help you decide how hot, cold, wet, or windy it might be!

Date:

Astronomy

Sep. 18, 2013 Rise Set
Actual Time 6:41 AM EDT 7:01 PM EDT
Civil Twilight 6:14 AM EDT 7:28 PM EDT
Nautical Twilight 5:41 AM EDT 8:00 PM EDT
Astronomical Twilight 5:08 AM EDT 8:33 PM EDT
Moon 6:22 PM EDT (9/18) 5:40 AM EDT (9/18)
Length of Visible Light 13h 14m
Length of Day
12h 19m
Waxing Gibbous, 99% of the Moon is Illuminated
Sep 18
Waxing Gibbous
Sep 19
Full
Sep 26
Last Quarter
Oct 4
New
Oct 11
First Quarter

Hourly Weather History & Observations

Time (EDT) Temp. Dew Point Humidity Pressure Visibility Wind Dir Wind Speed Gust Speed Precip Events Conditions
12:15 AM 42.8 °F 39.2 °F 87% 30.37 in 10.0 mi Calm Calm - N/A   Clear
12:35 AM 42.8 °F 41.0 °F 93% 30.37 in 1.5 mi Calm Calm - N/A   Mist
12:55 AM 42.8 °F 39.2 °F 87% 30.37 in 7.0 mi Calm Calm - N/A   Clear
1:15 AM 42.8 °F 39.2 °F 87% 30.37 in 10.0 mi Calm Calm - N/A   Clear
1:35 AM 41.0 °F 39.2 °F 93% 30.37 in 5.0 mi Calm Calm - N/A   Clear
1:55 AM 42.8 °F 39.2 °F 87% 30.37 in 1.2 mi Calm Calm - N/A   Mist
2:15 AM 41.0 °F 39.2 °F 93% 30.36 in 10.0 mi Calm Calm - N/A   Clear
2:35 AM 41.0 °F 39.2 °F 93% 30.36 in 0.8 mi Calm Calm - N/A   Mostly Cloudy
2:55 AM 41.0 °F 37.4 °F 87% 30.36 in 0.5 mi Calm Calm - N/A Fog Fog
3:15 AM 41.0 °F 37.4 °F 87% 30.35 in 1.2 mi Calm Calm - N/A   Scattered Clouds
3:35 AM 39.2 °F 37.4 °F 93% 30.36 in 1.2 mi Calm Calm - N/A   Mist
3:55 AM 41.0 °F 37.4 °F 87% 30.35 in 10.0 mi Calm Calm - N/A   Clear
4:15 AM 39.2 °F 37.4 °F 93% 30.34 in 10.0 mi Calm Calm - N/A   Clear
4:35 AM 39.2 °F 37.4 °F 93% 30.35 in 10.0 mi Calm Calm - N/A   Clear
4:55 AM 39.2 °F 37.4 °F 93% 30.35 in 10.0 mi Calm Calm - N/A   Clear
5:15 AM 39.2 °F 37.4 °F 93% 30.35 in 10.0 mi Calm Calm - N/A   Clear
5:35 AM 39.2 °F 35.6 °F 87% 30.34 in 10.0 mi Calm Calm - N/A   Clear
5:55 AM 39.2 °F 35.6 °F 87% 30.35 in 10.0 mi Calm Calm - N/A   Clear
6:15 AM 37.4 °F 35.6 °F 93% 30.34 in 10.0 mi Calm Calm - N/A   Clear
6:35 AM 39.2 °F 35.6 °F 87% 30.35 in 7.0 mi Calm Calm - N/A   Clear
6:45 AM 37.4 °F 37.4 °F 100% 30.36 in 10.0 mi Calm Calm - N/A   Clear
7:45 AM 42.8 °F 41.0 °F 93% 30.36 in 10.0 mi Calm Calm - N/A   Clear
8:45 AM 50.0 °F 44.6 °F 82% 30.35 in 10.0 mi Calm Calm - N/A   Clear
9:45 AM 55.4 °F 46.4 °F 72% 30.34 in 10.0 mi Calm Calm - N/A   Clear
10:45 AM 62.6 °F 46.4 °F 55% 30.33 in 10.0 mi Calm Calm - N/A   Clear
11:45 AM 64.4 °F 42.8 °F 45% 30.31 in 10.0 mi South 5.8 mph - N/A   Clear
12:45 PM 66.2 °F 42.8 °F 43% 30.28 in 10.0 mi WSW 5.8 mph - N/A   Clear
1:45 PM 68.0 °F 46.4 °F 46% 30.26 in 25.0 mi WSW 8.1 mph - N/A   Clear
2:45 PM 69.8 °F 42.8 °F 38% 30.24 in 10.0 mi South 6.9 mph - N/A   Clear
3:45 PM 69.8 °F 41.0 °F 35% 30.23 in 10.0 mi WSW 6.9 mph - N/A   Clear
4:45 PM 69.8 °F 42.8 °F 38% 30.21 in 10.0 mi West 9.2 mph - N/A   Clear
5:45 PM 69.8 °F 41.0 °F 35% 30.21 in 25.0 mi SW 6.9 mph - N/A   Clear
6:45 PM 62.6 °F 48.2 °F 59% 30.20 in 10.0 mi WSW 5.8 mph - N/A   Clear
7:45 PM 53.6 °F 48.2 °F 82% 30.20 in 10.0 mi Calm Calm - N/A   Clear
8:45 PM 50.0 °F 46.4 °F 87% 30.21 in 10.0 mi Calm Calm - N/A   Clear
9:45 PM 50.0 °F 46.4 °F 87% 30.21 in 10.0 mi Calm Calm - N/A   Clear
10:55 PM 48.2 °F 44.6 °F 87% 30.21 in 10.0 mi Calm Calm - N/A   Clear
11:15 PM 48.2 °F 44.6 °F 87% 30.20 in 10.0 mi Calm Calm - N/A   Clear
11:35 PM 46.4 °F 44.6 °F 93% 30.20 in 4.0 mi Calm Calm - N/A   Clear
11:55 PM 46.4 °F 42.8 °F 87% 30.20 in 1.0 mi Calm Calm - N/A   Mist